Location: Greenwich
(51.4790°N, 0.0090°E)
Time: 21:16:12
(UTC+01:00)

N. Korean satellite - Pass Details

Date: 03 October 2021
Orbit: 450 x 495 km, 97.3° (Epoch: 25 October)

Event Time Altitude Azimuth Distance (km) Brightness Sun altitude
Rises 05:26:59 0° 26° (NNE) 2,555 10.8 -15.8°
Reaches altitude 10° 05:29:30 10° 45° (NE) 1,678 10.2 -15.4°
Maximum altitude 05:32:09 19° 92° (E) 1,216 9.6 -15.0°
Drops below altitude 10° 05:34:49 10° 139° (SE) 1,682 9.7 -14.6°
Sets 05:37:20 0° 158° (SSE) 2,563 10.4 -14.3°
